Weather History for Valparaiso, IN

Change the Weather History Date:

Thursday, August 14, 2014

  Actual Average Record
Temperature  
Mean Temperature 59 °F 71 °F  
Max Temperature 70 °F 81 °F 89 °F (2009)
Min Temperature 48 °F 61 °F 48 °F (2014)
Degree Days  
Heating Degree Days 6 0  
Month to date heating degree days 9 0  
Since 1 June heating degree days 54 45  
Since 1 July heating degree days 34 4  
Cooling Degree Days 0 6  
Month to date cooling degree days 64 94  
Year to date cooling degree days 408 545  
Since 1 June cooling degree days 335 498  
Growing Degree Days 10 (Base 50)    
Moisture  
Dew Point 50 °F    
Average Humidity 68    
Maximum Humidity 87    
Minimum Humidity 49    
Precipitation  
Precipitation 0.00 in 0.14 in 0.25 in (2011)
Month to date precipitation 2.60 1.86  
Year to date precipitation 21.47 23.09  
Sea Level Pressure  
Sea Level Pressure 30.08 in    
Wind  
Wind Speed 5 mph (NNE)    
Max Wind Speed 13 mph    
Max Gust Speed 19 mph    
Visibility 10 miles    
Events      
T = Trace of Precipitation, MM = Missing Value Source: NWS Daily Summary

Daily Weather History Graph

Daily Weather History Graph

Search for Another Location

Airport:

Trip Planner

Search our weather history database for the weather conditions in past years. The results will help you decide how hot, cold, wet, or windy it might be!

Date:

Astronomy

Aug. 14, 2014 Rise Set
Actual Time 5:55 AM CDT 7:48 PM CDT
Civil Twilight 5:26 AM CDT 8:18 PM CDT
Nautical Twilight 4:49 AM CDT 8:54 PM CDT
Astronomical Twilight 4:10 AM CDT 9:33 PM CDT
Moon 10:07 PM CDT (8/14) 10:36 AM CDT (8/14)
Length of Visible Light 14h 52m
Length of Day
13h 52m
Waning Gibbous, 79% of the Moon is Illuminated
Aug 14
Waning Gibbous
Aug 17
Last Quarter
Aug 25
New
Sep 2
First Quarter
Sep 8
Full

Hourly Weather History & Observations

Time (CDT) Temp. Dew Point Humidity Pressure Visibility Wind Dir Wind Speed Gust Speed Precip Events Conditions
12:53 AM 60.1 °F 55.9 °F 86% 30.03 in 10.0 mi NNE 3.5 mph - N/A   Partly Cloudy
1:53 AM 60.1 °F 55.0 °F 83% 30.04 in 10.0 mi Calm Calm - N/A   Mostly Cloudy
2:53 AM 62.1 °F 52.0 °F 70% 30.03 in 10.0 mi North 4.6 mph - N/A   Scattered Clouds
3:53 AM 60.1 °F 54.0 °F 80% 30.04 in 10.0 mi Variable 3.5 mph - N/A   Scattered Clouds
4:53 AM 59.0 °F 55.0 °F 87% 30.05 in 10.0 mi NE 4.6 mph - N/A   Partly Cloudy
5:53 AM 57.0 °F 51.1 °F 81% 30.07 in 10.0 mi NE 5.8 mph - N/A   Partly Cloudy
6:53 AM 57.9 °F 51.1 °F 78% 30.08 in 10.0 mi NE 4.6 mph - N/A   Partly Cloudy
7:53 AM 60.1 °F 53.1 °F 78% 30.10 in 10.0 mi NE 4.6 mph - N/A   Partly Cloudy
8:53 AM 64.0 °F 52.0 °F 65% 30.10 in 10.0 mi NE 6.9 mph - N/A   Partly Cloudy
9:53 AM 66.0 °F 50.0 °F 56% 30.10 in 10.0 mi NE 8.1 mph - N/A   Clear
10:53 AM 66.9 °F 50.0 °F 54% 30.11 in 10.0 mi NNE 6.9 mph - N/A   Clear
11:53 AM 69.1 °F 48.9 °F 49% 30.10 in 10.0 mi North 9.2 mph - N/A   Clear
12:53 PM 70.0 °F 51.1 °F 51% 30.10 in 10.0 mi NNE 8.1 mph - N/A   Partly Cloudy
1:53 PM 69.1 °F 48.9 °F 49% 30.09 in 10.0 mi North 9.2 mph 16.1 mph N/A   Clear
2:53 PM 68.0 °F 48.0 °F 49% 30.09 in 10.0 mi North 9.2 mph - N/A   Clear
3:53 PM 68.0 °F 48.0 °F 49% 30.09 in 10.0 mi North 9.2 mph - N/A   Clear
4:53 PM 66.0 °F 48.0 °F 52% 30.08 in 10.0 mi North 9.2 mph - N/A   Clear
5:53 PM 64.0 °F 46.0 °F 52% 30.07 in 10.0 mi North 8.1 mph - N/A   Clear
6:53 PM 59.0 °F 46.0 °F 62% 30.08 in 10.0 mi Calm Calm - N/A   Clear
7:53 PM 54.0 °F 46.9 °F 77% 30.08 in 10.0 mi Calm Calm - N/A   Clear
8:53 PM 55.0 °F 46.0 °F 72% 30.09 in 10.0 mi Calm Calm - N/A   Clear
9:53 PM 51.1 °F 46.9 °F 86% 30.09 in 10.0 mi Calm Calm - N/A   Clear
10:53 PM 50.0 °F 46.0 °F 86% 30.09 in 10.0 mi Calm Calm - N/A   Clear
11:53 PM 50.0 °F 46.0 °F 86% 30.07 in 10.0 mi Calm Calm - N/A   Clear